<?xml version="1.0" encoding="utf-8"?>
<gpx xmlns:xsi="http://www.w3.org/2001/XMLSchema-instance" xmlns:xsd="http://www.w3.org/2001/XMLSchema" version="1.1" creator="Shapelink.com" xmlns="http://www.topografix.com/GPX/1/1" xmlns:gpxtpx="http://www.garmin.com/xmlschemas/TrackPointExtension/v1">
  <metadata>
    <name>Kører 5.01 km, 2013-05-20</name>
    <desc></desc>
    <author><name>Mattias Eriksson</name></author> 
    <time>1970-01-01T01:00:00Z</time>
  </metadata>
  <trk>
    <name>Kører 5.01 km, 2013-05-20</name>
    <trkseg>
      <trkpt lat="55.601014" lon="12.979205">
        <ele>5</ele>
        <time>1970-01-01T01:00:00Z</time>
      </trkpt>
      <trkpt lat="55.600907" lon="12.979125">
        <ele>5</ele>
        <time>1970-01-01T01:00:00Z</time>
      </trkpt>
      <trkpt lat="55.600902" lon="12.978967">
        <ele>5</ele>
        <time>1970-01-01T01:00:00Z</time>
      </trkpt>
      <trkpt lat="55.601003" lon="12.978946">
        <ele>5</ele>
        <time>1970-01-01T01:00:00Z</time>
      </trkpt>
      <trkpt lat="55.60108" lon="12.978875">
        <ele>5</ele>
        <time>1970-01-01T01:00:00Z</time>
      </trkpt>
      <trkpt lat="55.601181" lon="12.978823">
        <ele>5</ele>
        <time>1970-01-01T01:00:00Z</time>
      </trkpt>
      <trkpt lat="55.601271" lon="12.978713">
        <ele>5</ele>
        <time>1970-01-01T01:00:00Z</time>
      </trkpt>
      <trkpt lat="55.601342" lon="12.978625">
        <ele>5</ele>
        <time>1970-01-01T01:00:00Z</time>
      </trkpt>
      <trkpt lat="55.601429" lon="12.978534">
        <ele>5</ele>
        <time>1970-01-01T01:00:00Z</time>
      </trkpt>
      <trkpt lat="55.601517" lon="12.978464">
        <ele>5</ele>
        <time>1970-01-01T01:00:00Z</time>
      </trkpt>
      <trkpt lat="55.601607" lon="12.978395">
        <ele>5</ele>
        <time>1970-01-01T01:00:00Z</time>
      </trkpt>
      <trkpt lat="55.601701" lon="12.978382">
        <ele>5.09091</ele>
        <time>1970-01-01T01:00:00Z</time>
      </trkpt>
      <trkpt lat="55.601786" lon="12.978385">
        <ele>5.18182</ele>
        <time>1970-01-01T01:00:00Z</time>
      </trkpt>
      <trkpt lat="55.601892" lon="12.97834">
        <ele>5.27273</ele>
        <time>1970-01-01T01:00:00Z</time>
      </trkpt>
      <trkpt lat="55.601984" lon="12.978248">
        <ele>5.36364</ele>
        <time>1970-01-01T01:00:00Z</time>
      </trkpt>
      <trkpt lat="55.602071" lon="12.97817">
        <ele>5.45455</ele>
        <time>1970-01-01T01:00:00Z</time>
      </trkpt>
      <trkpt lat="55.602167" lon="12.97817">
        <ele>5.63636</ele>
        <time>1970-01-01T01:00:00Z</time>
      </trkpt>
      <trkpt lat="55.602271" lon="12.9782">
        <ele>5.81818</ele>
        <time>1970-01-01T01:00:00Z</time>
      </trkpt>
      <trkpt lat="55.602354" lon="12.978186">
        <ele>6</ele>
        <time>1970-01-01T01:00:00Z</time>
      </trkpt>
      <trkpt lat="55.602439" lon="12.978101">
        <ele>6.18182</ele>
        <time>1970-01-01T01:00:00Z</time>
      </trkpt>
      <trkpt lat="55.602521" lon="12.978066">
        <ele>6.45455</ele>
        <time>1970-01-01T01:00:00Z</time>
      </trkpt>
      <trkpt lat="55.602642" lon="12.977986">
        <ele>6.72727</ele>
        <time>1970-01-01T01:00:00Z</time>
      </trkpt>
      <trkpt lat="55.602748" lon="12.977917">
        <ele>6.90909</ele>
        <time>1970-01-01T01:00:00Z</time>
      </trkpt>
      <trkpt lat="55.602828" lon="12.977892">
        <ele>7.09091</ele>
        <time>1970-01-01T01:00:00Z</time>
      </trkpt>
      <trkpt lat="55.60291" lon="12.977845">
        <ele>7.27273</ele>
        <time>1970-01-01T01:00:00Z</time>
      </trkpt>
      <trkpt lat="55.602987" lon="12.977755">
        <ele>7.45455</ele>
        <time>1970-01-01T01:00:00Z</time>
      </trkpt>
      <trkpt lat="55.603069" lon="12.977771">
        <ele>7.63636</ele>
        <time>1970-01-01T01:00:00Z</time>
      </trkpt>
      <trkpt lat="55.603158" lon="12.977777">
        <ele>7.72727</ele>
        <time>1970-01-01T01:00:00Z</time>
      </trkpt>
      <trkpt lat="55.603253" lon="12.977765">
        <ele>7.27273</ele>
        <time>1970-01-01T01:00:00Z</time>
      </trkpt>
      <trkpt lat="55.603354" lon="12.977764">
        <ele>6.81818</ele>
        <time>1970-01-01T01:00:00Z</time>
      </trkpt>
      <trkpt lat="55.603511" lon="12.977682">
        <ele>6.36364</ele>
        <time>1970-01-01T01:00:00Z</time>
      </trkpt>
      <trkpt lat="55.603638" lon="12.977586">
        <ele>5.81818</ele>
        <time>1970-01-01T01:00:00Z</time>
      </trkpt>
      <trkpt lat="55.603732" lon="12.977506">
        <ele>5.27273</ele>
        <time>1970-01-01T01:00:00Z</time>
      </trkpt>
      <trkpt lat="55.603797" lon="12.977401">
        <ele>4.72727</ele>
        <time>1970-01-01T01:00:00Z</time>
      </trkpt>
      <trkpt lat="55.603861" lon="12.977296">
        <ele>4.18182</ele>
        <time>1970-01-01T01:00:00Z</time>
      </trkpt>
      <trkpt lat="55.603943" lon="12.977243">
        <ele>3.63636</ele>
        <time>1970-01-01T01:00:00Z</time>
      </trkpt>
      <trkpt lat="55.604036" lon="12.977174">
        <ele>3.09091</ele>
        <time>1970-01-01T01:00:00Z</time>
      </trkpt>
      <trkpt lat="55.604053" lon="12.976993">
        <ele>2.54545</ele>
        <time>1970-01-01T01:00:00Z</time>
      </trkpt>
      <trkpt lat="55.604017" lon="12.976833">
        <ele>2</ele>
        <time>1970-01-01T01:00:00Z</time>
      </trkpt>
      <trkpt lat="55.60399" lon="12.976669">
        <ele>2</ele>
        <time>1970-01-01T01:00:00Z</time>
      </trkpt>
      <trkpt lat="55.603969" lon="12.976526">
        <ele>2</ele>
        <time>1970-01-01T01:00:00Z</time>
      </trkpt>
      <trkpt lat="55.603962" lon="12.976382">
        <ele>2</ele>
        <time>1970-01-01T01:00:00Z</time>
      </trkpt>
      <trkpt lat="55.603959" lon="12.976235">
        <ele>2</ele>
        <time>1970-01-01T01:00:00Z</time>
      </trkpt>
      <trkpt lat="55.60396" lon="12.976066">
        <ele>2.54545</ele>
        <time>1970-01-01T01:00:00Z</time>
      </trkpt>
      <trkpt lat="55.603952" lon="12.975907">
        <ele>3.09091</ele>
        <time>1970-01-01T01:00:00Z</time>
      </trkpt>
      <trkpt lat="55.603904" lon="12.975751">
        <ele>3.63636</ele>
        <time>1970-01-01T01:00:00Z</time>
      </trkpt>
      <trkpt lat="55.603846" lon="12.975522">
        <ele>4.18182</ele>
        <time>1970-01-01T01:00:00Z</time>
      </trkpt>
      <trkpt lat="55.603804" lon="12.97539">
        <ele>4.45455</ele>
        <time>1970-01-01T01:00:00Z</time>
      </trkpt>
      <trkpt lat="55.603716" lon="12.975242">
        <ele>4.72727</ele>
        <time>1970-01-01T01:00:00Z</time>
      </trkpt>
      <trkpt lat="55.603644" lon="12.975086">
        <ele>5</ele>
        <time>1970-01-01T01:00:00Z</time>
      </trkpt>
      <trkpt lat="55.603591" lon="12.974933">
        <ele>5.27273</ele>
        <time>1970-01-01T01:00:00Z</time>
      </trkpt>
      <trkpt lat="55.603548" lon="12.974785">
        <ele>5.54545</ele>
        <time>1970-01-01T01:00:00Z</time>
      </trkpt>
      <trkpt lat="55.603507" lon="12.97465">
        <ele>5.81818</ele>
        <time>1970-01-01T01:00:00Z</time>
      </trkpt>
      <trkpt lat="55.603466" lon="12.974492">
        <ele>5.90909</ele>
        <time>1970-01-01T01:00:00Z</time>
      </trkpt>
      <trkpt lat="55.603425" lon="12.97432">
        <ele>5.45455</ele>
        <time>1970-01-01T01:00:00Z</time>
      </trkpt>
      <trkpt lat="55.603383" lon="12.974147">
        <ele>5</ele>
        <time>1970-01-01T01:00:00Z</time>
      </trkpt>
      <trkpt lat="55.603339" lon="12.973952">
        <ele>4.54545</ele>
        <time>1970-01-01T01:00:00Z</time>
      </trkpt>
      <trkpt lat="55.603305" lon="12.973765">
        <ele>4</ele>
        <time>1970-01-01T01:00:00Z</time>
      </trkpt>
      <trkpt lat="55.603285" lon="12.973594">
        <ele>3.72727</ele>
        <time>1970-01-01T01:00:00Z</time>
      </trkpt>
      <trkpt lat="55.603258" lon="12.973418">
        <ele>3.45455</ele>
        <time>1970-01-01T01:00:00Z</time>
      </trkpt>
      <trkpt lat="55.603224" lon="12.973247">
        <ele>3.54545</ele>
        <time>1970-01-01T01:00:00Z</time>
      </trkpt>
      <trkpt lat="55.603181" lon="12.973077">
        <ele>3.63636</ele>
        <time>1970-01-01T01:00:00Z</time>
      </trkpt>
      <trkpt lat="55.603129" lon="12.972921">
        <ele>3.72727</ele>
        <time>1970-01-01T01:00:00Z</time>
      </trkpt>
      <trkpt lat="55.603069" lon="12.972792">
        <ele>3.81818</ele>
        <time>1970-01-01T01:00:00Z</time>
      </trkpt>
      <trkpt lat="55.603001" lon="12.972662">
        <ele>3.90909</ele>
        <time>1970-01-01T01:00:00Z</time>
      </trkpt>
      <trkpt lat="55.602923" lon="12.972546">
        <ele>4</ele>
        <time>1970-01-01T01:00:00Z</time>
      </trkpt>
      <trkpt lat="55.602865" lon="12.972439">
        <ele>4.09091</ele>
        <time>1970-01-01T01:00:00Z</time>
      </trkpt>
      <trkpt lat="55.602811" lon="12.972319">
        <ele>4.18182</ele>
        <time>1970-01-01T01:00:00Z</time>
      </trkpt>
      <trkpt lat="55.602758" lon="12.972179">
        <ele>4.36364</ele>
        <time>1970-01-01T01:00:00Z</time>
      </trkpt>
      <trkpt lat="55.602718" lon="12.972024">
        <ele>4.45455</ele>
        <time>1970-01-01T01:00:00Z</time>
      </trkpt>
      <trkpt lat="55.602672" lon="12.971865">
        <ele>4.54545</ele>
        <time>1970-01-01T01:00:00Z</time>
      </trkpt>
      <trkpt lat="55.602648" lon="12.971709">
        <ele>4.27273</ele>
        <time>1970-01-01T01:00:00Z</time>
      </trkpt>
      <trkpt lat="55.602621" lon="12.971541">
        <ele>4</ele>
        <time>1970-01-01T01:00:00Z</time>
      </trkpt>
      <trkpt lat="55.602594" lon="12.971353">
        <ele>3.72727</ele>
        <time>1970-01-01T01:00:00Z</time>
      </trkpt>
      <trkpt lat="55.602576" lon="12.971176">
        <ele>3.45455</ele>
        <time>1970-01-01T01:00:00Z</time>
      </trkpt>
      <trkpt lat="55.60256" lon="12.970995">
        <ele>3.36364</ele>
        <time>1970-01-01T01:00:00Z</time>
      </trkpt>
      <trkpt lat="55.602523" lon="12.970842">
        <ele>3.27273</ele>
        <time>1970-01-01T01:00:00Z</time>
      </trkpt>
      <trkpt lat="55.602469" lon="12.970712">
        <ele>3.18182</ele>
        <time>1970-01-01T01:00:00Z</time>
      </trkpt>
      <trkpt lat="55.602399" lon="12.970597">
        <ele>3.09091</ele>
        <time>1970-01-01T01:00:00Z</time>
      </trkpt>
      <trkpt lat="55.602325" lon="12.970501">
        <ele>3</ele>
        <time>1970-01-01T01:00:00Z</time>
      </trkpt>
      <trkpt lat="55.602254" lon="12.970374">
        <ele>2.90909</ele>
        <time>1970-01-01T01:00:00Z</time>
      </trkpt>
      <trkpt lat="55.602191" lon="12.970262">
        <ele>3.09091</ele>
        <time>1970-01-01T01:00:00Z</time>
      </trkpt>
      <trkpt lat="55.602184" lon="12.970072">
        <ele>3.27273</ele>
        <time>1970-01-01T01:00:00Z</time>
      </trkpt>
      <trkpt lat="55.602189" lon="12.969871">
        <ele>3.45455</ele>
        <time>1970-01-01T01:00:00Z</time>
      </trkpt>
      <trkpt lat="55.602171" lon="12.969705">
        <ele>3.63636</ele>
        <time>1970-01-01T01:00:00Z</time>
      </trkpt>
      <trkpt lat="55.602123" lon="12.969545">
        <ele>3.81818</ele>
        <time>1970-01-01T01:00:00Z</time>
      </trkpt>
      <trkpt lat="55.602087" lon="12.969382">
        <ele>4</ele>
        <time>1970-01-01T01:00:00Z</time>
      </trkpt>
      <trkpt lat="55.602038" lon="12.969212">
        <ele>3.90909</ele>
        <time>1970-01-01T01:00:00Z</time>
      </trkpt>
      <trkpt lat="55.601997" lon="12.96906">
        <ele>3.81818</ele>
        <time>1970-01-01T01:00:00Z</time>
      </trkpt>
      <trkpt lat="55.601957" lon="12.968906">
        <ele>3.72727</ele>
        <time>1970-01-01T01:00:00Z</time>
      </trkpt>
      <trkpt lat="55.601868" lon="12.968825">
        <ele>3.63636</ele>
        <time>1970-01-01T01:00:00Z</time>
      </trkpt>
      <trkpt lat="55.601774" lon="12.968839">
        <ele>3.63636</ele>
        <time>1970-01-01T01:00:00Z</time>
      </trkpt>
      <trkpt lat="55.601684" lon="12.96875">
        <ele>3.36364</ele>
        <time>1970-01-01T01:00:00Z</time>
      </trkpt>
      <trkpt lat="55.601624" lon="12.968627">
        <ele>3.09091</ele>
        <time>1970-01-01T01:00:00Z</time>
      </trkpt>
      <trkpt lat="55.601555" lon="12.968538">
        <ele>3.09091</ele>
        <time>1970-01-01T01:00:00Z</time>
      </trkpt>
      <trkpt lat="55.601486" lon="12.968454">
        <ele>3.09091</ele>
        <time>1970-01-01T01:00:00Z</time>
      </trkpt>
      <trkpt lat="55.601424" lon="12.968324">
        <ele>3.09091</ele>
        <time>1970-01-01T01:00:00Z</time>
      </trkpt>
      <trkpt lat="55.60138" lon="12.96819">
        <ele>3.09091</ele>
        <time>1970-01-01T01:00:00Z</time>
      </trkpt>
      <trkpt lat="55.601339" lon="12.968053">
        <ele>3.36364</ele>
        <time>1970-01-01T01:00:00Z</time>
      </trkpt>
      <trkpt lat="55.601283" lon="12.967894">
        <ele>3.45455</ele>
        <time>1970-01-01T01:00:00Z</time>
      </trkpt>
      <trkpt lat="55.601241" lon="12.967751">
        <ele>3.54545</ele>
        <time>1970-01-01T01:00:00Z</time>
      </trkpt>
      <trkpt lat="55.601189" lon="12.967578">
        <ele>3.63636</ele>
        <time>1970-01-01T01:00:00Z</time>
      </trkpt>
      <trkpt lat="55.601156" lon="12.967425">
        <ele>3.72727</ele>
        <time>1970-01-01T01:00:00Z</time>
      </trkpt>
      <trkpt lat="55.60113" lon="12.967241">
        <ele>3.81818</ele>
        <time>1970-01-01T01:00:00Z</time>
      </trkpt>
      <trkpt lat="55.601101" lon="12.967049">
        <ele>3.81818</ele>
        <time>1970-01-01T01:00:00Z</time>
      </trkpt>
      <trkpt lat="55.601067" lon="12.96685">
        <ele>3.54545</ele>
        <time>1970-01-01T01:00:00Z</time>
      </trkpt>
      <trkpt lat="55.601022" lon="12.966706">
        <ele>3.27273</ele>
        <time>1970-01-01T01:00:00Z</time>
      </trkpt>
      <trkpt lat="55.600961" lon="12.966606">
        <ele>3</ele>
        <time>1970-01-01T01:00:00Z</time>
      </trkpt>
      <trkpt lat="55.600907" lon="12.96643">
        <ele>2.72727</ele>
        <time>1970-01-01T01:00:00Z</time>
      </trkpt>
      <trkpt lat="55.60087" lon="12.966253">
        <ele>2.45455</ele>
        <time>1970-01-01T01:00:00Z</time>
      </trkpt>
      <trkpt lat="55.60083" lon="12.966074">
        <ele>2.36364</ele>
        <time>1970-01-01T01:00:00Z</time>
      </trkpt>
      <trkpt lat="55.600796" lon="12.965872">
        <ele>2.27273</ele>
        <time>1970-01-01T01:00:00Z</time>
      </trkpt>
      <trkpt lat="55.600757" lon="12.965668">
        <ele>2.18182</ele>
        <time>1970-01-01T01:00:00Z</time>
      </trkpt>
      <trkpt lat="55.600708" lon="12.965492">
        <ele>2.27273</ele>
        <time>1970-01-01T01:00:00Z</time>
      </trkpt>
      <trkpt lat="55.600651" lon="12.965358">
        <ele>2.36364</ele>
        <time>1970-01-01T01:00:00Z</time>
      </trkpt>
      <trkpt lat="55.600581" lon="12.965225">
        <ele>2.54545</ele>
        <time>1970-01-01T01:00:00Z</time>
      </trkpt>
      <trkpt lat="55.600551" lon="12.965045">
        <ele>2.72727</ele>
        <time>1970-01-01T01:00:00Z</time>
      </trkpt>
      <trkpt lat="55.600502" lon="12.964853">
        <ele>2.90909</ele>
        <time>1970-01-01T01:00:00Z</time>
      </trkpt>
      <trkpt lat="55.600462" lon="12.964668">
        <ele>3.09091</ele>
        <time>1970-01-01T01:00:00Z</time>
      </trkpt>
      <trkpt lat="55.600408" lon="12.964486">
        <ele>3.18182</ele>
        <time>1970-01-01T01:00:00Z</time>
      </trkpt>
      <trkpt lat="55.600357" lon="12.964307">
        <ele>3.27273</ele>
        <time>1970-01-01T01:00:00Z</time>
      </trkpt>
      <trkpt lat="55.600315" lon="12.964139">
        <ele>3.36364</ele>
        <time>1970-01-01T01:00:00Z</time>
      </trkpt>
      <trkpt lat="55.60027" lon="12.963959">
        <ele>3.45455</ele>
        <time>1970-01-01T01:00:00Z</time>
      </trkpt>
      <trkpt lat="55.600227" lon="12.9638">
        <ele>3.54545</ele>
        <time>1970-01-01T01:00:00Z</time>
      </trkpt>
      <trkpt lat="55.600185" lon="12.963636">
        <ele>3.36364</ele>
        <time>1970-01-01T01:00:00Z</time>
      </trkpt>
      <trkpt lat="55.600142" lon="12.963465">
        <ele>3.18182</ele>
        <time>1970-01-01T01:00:00Z</time>
      </trkpt>
      <trkpt lat="55.600101" lon="12.963333">
        <ele>3</ele>
        <time>1970-01-01T01:00:00Z</time>
      </trkpt>
      <trkpt lat="55.600054" lon="12.963189">
        <ele>2.81818</ele>
        <time>1970-01-01T01:00:00Z</time>
      </trkpt>
      <trkpt lat="55.600015" lon="12.963041">
        <ele>2.63636</ele>
        <time>1970-01-01T01:00:00Z</time>
      </trkpt>
      <trkpt lat="55.599976" lon="12.962903">
        <ele>2.45455</ele>
        <time>1970-01-01T01:00:00Z</time>
      </trkpt>
      <trkpt lat="55.599927" lon="12.962756">
        <ele>2.27273</ele>
        <time>1970-01-01T01:00:00Z</time>
      </trkpt>
      <trkpt lat="55.599873" lon="12.962603">
        <ele>2.45455</ele>
        <time>1970-01-01T01:00:00Z</time>
      </trkpt>
      <trkpt lat="55.599818" lon="12.962459">
        <ele>2.63636</ele>
        <time>1970-01-01T01:00:00Z</time>
      </trkpt>
      <trkpt lat="55.599775" lon="12.962313">
        <ele>2.81818</ele>
        <time>1970-01-01T01:00:00Z</time>
      </trkpt>
      <trkpt lat="55.599724" lon="12.962177">
        <ele>3</ele>
        <time>1970-01-01T01:00:00Z</time>
      </trkpt>
      <trkpt lat="55.599674" lon="12.962028">
        <ele>3.27273</ele>
        <time>1970-01-01T01:00:00Z</time>
      </trkpt>
      <trkpt lat="55.599629" lon="12.9619">
        <ele>3.27273</ele>
        <time>1970-01-01T01:00:00Z</time>
      </trkpt>
      <trkpt lat="55.599587" lon="12.961764">
        <ele>3.27273</ele>
        <time>1970-01-01T01:00:00Z</time>
      </trkpt>
      <trkpt lat="55.599541" lon="12.961625">
        <ele>3.27273</ele>
        <time>1970-01-01T01:00:00Z</time>
      </trkpt>
      <trkpt lat="55.599491" lon="12.961482">
        <ele>3.27273</ele>
        <time>1970-01-01T01:00:00Z</time>
      </trkpt>
      <trkpt lat="55.599433" lon="12.961348">
        <ele>3.27273</ele>
        <time>1970-01-01T01:00:00Z</time>
      </trkpt>
      <trkpt lat="55.599382" lon="12.961214">
        <ele>3.36364</ele>
        <time>1970-01-01T01:00:00Z</time>
      </trkpt>
      <trkpt lat="55.599329" lon="12.961089">
        <ele>2.90909</ele>
        <time>1970-01-01T01:00:00Z</time>
      </trkpt>
      <trkpt lat="55.599283" lon="12.960967">
        <ele>2.45455</ele>
        <time>1970-01-01T01:00:00Z</time>
      </trkpt>
      <trkpt lat="55.599228" lon="12.96083">
        <ele>2</ele>
        <time>1970-01-01T01:00:00Z</time>
      </trkpt>
      <trkpt lat="55.599167" lon="12.960681">
        <ele>1.54545</ele>
        <time>1970-01-01T01:00:00Z</time>
      </trkpt>
      <trkpt lat="55.599113" lon="12.960539">
        <ele>1.09091</ele>
        <time>1970-01-01T01:00:00Z</time>
      </trkpt>
      <trkpt lat="55.599053" lon="12.960407">
        <ele>1.54545</ele>
        <time>1970-01-01T01:00:00Z</time>
      </trkpt>
      <trkpt lat="55.598982" lon="12.960294">
        <ele>1.63636</ele>
        <time>1970-01-01T01:00:00Z</time>
      </trkpt>
      <trkpt lat="55.59892" lon="12.960154">
        <ele>1.72727</ele>
        <time>1970-01-01T01:00:00Z</time>
      </trkpt>
      <trkpt lat="55.59886" lon="12.960054">
        <ele>1.81818</ele>
        <time>1970-01-01T01:00:00Z</time>
      </trkpt>
      <trkpt lat="55.598798" lon="12.959909">
        <ele>1.90909</ele>
        <time>1970-01-01T01:00:00Z</time>
      </trkpt>
      <trkpt lat="55.598739" lon="12.95974">
        <ele>2</ele>
        <time>1970-01-01T01:00:00Z</time>
      </trkpt>
      <trkpt lat="55.598688" lon="12.959554">
        <ele>2</ele>
        <time>1970-01-01T01:00:00Z</time>
      </trkpt>
      <trkpt lat="55.598627" lon="12.959386">
        <ele>2</ele>
        <time>1970-01-01T01:00:00Z</time>
      </trkpt>
      <trkpt lat="55.598579" lon="12.95923">
        <ele>2</ele>
        <time>1970-01-01T01:00:00Z</time>
      </trkpt>
      <trkpt lat="55.598528" lon="12.959054">
        <ele>2</ele>
        <time>1970-01-01T01:00:00Z</time>
      </trkpt>
      <trkpt lat="55.598503" lon="12.958883">
        <ele>2</ele>
        <time>1970-01-01T01:00:00Z</time>
      </trkpt>
      <trkpt lat="55.598474" lon="12.958743">
        <ele>1.36364</ele>
        <time>1970-01-01T01:00:00Z</time>
      </trkpt>
      <trkpt lat="55.598433" lon="12.958598">
        <ele>1</ele>
        <time>1970-01-01T01:00:00Z</time>
      </trkpt>
      <trkpt lat="55.598393" lon="12.958474">
        <ele>0.636364</ele>
        <time>1970-01-01T01:00:00Z</time>
      </trkpt>
      <trkpt lat="55.598347" lon="12.958332">
        <ele>0.272727</ele>
        <time>1970-01-01T01:00:00Z</time>
      </trkpt>
      <trkpt lat="55.598288" lon="12.958207">
        <ele>0</ele>
        <time>1970-01-01T01:00:00Z</time>
      </trkpt>
      <trkpt lat="55.598227" lon="12.958066">
        <ele>0</ele>
        <time>1970-01-01T01:00:00Z</time>
      </trkpt>
      <trkpt lat="55.598168" lon="12.957915">
        <ele>0</ele>
        <time>1970-01-01T01:00:00Z</time>
      </trkpt>
      <trkpt lat="55.59812" lon="12.957763">
        <ele>0.0909091</ele>
        <time>1970-01-01T01:00:00Z</time>
      </trkpt>
      <trkpt lat="55.598066" lon="12.957633">
        <ele>0.272727</ele>
        <time>1970-01-01T01:00:00Z</time>
      </trkpt>
      <trkpt lat="55.598011" lon="12.957513">
        <ele>0.454545</ele>
        <time>1970-01-01T01:00:00Z</time>
      </trkpt>
      <trkpt lat="55.597956" lon="12.957389">
        <ele>0.636364</ele>
        <time>1970-01-01T01:00:00Z</time>
      </trkpt>
      <trkpt lat="55.597893" lon="12.957289">
        <ele>0.818182</ele>
        <time>1970-01-01T01:00:00Z</time>
      </trkpt>
      <trkpt lat="55.597827" lon="12.957155">
        <ele>1.09091</ele>
        <time>1970-01-01T01:00:00Z</time>
      </trkpt>
      <trkpt lat="55.597757" lon="12.957033">
        <ele>1.36364</ele>
        <time>1970-01-01T01:00:00Z</time>
      </trkpt>
      <trkpt lat="55.597694" lon="12.956882">
        <ele>1.36364</ele>
        <time>1970-01-01T01:00:00Z</time>
      </trkpt>
      <trkpt lat="55.597632" lon="12.956728">
        <ele>1.36364</ele>
        <time>1970-01-01T01:00:00Z</time>
      </trkpt>
      <trkpt lat="55.597572" lon="12.956605">
        <ele>1.36364</ele>
        <time>1970-01-01T01:00:00Z</time>
      </trkpt>
      <trkpt lat="55.597509" lon="12.95648">
        <ele>0.909091</ele>
        <time>1970-01-01T01:00:00Z</time>
      </trkpt>
      <trkpt lat="55.597462" lon="12.956363">
        <ele>0.636364</ele>
        <time>1970-01-01T01:00:00Z</time>
      </trkpt>
      <trkpt lat="55.59741" lon="12.956198">
        <ele>0.454545</ele>
        <time>1970-01-01T01:00:00Z</time>
      </trkpt>
      <trkpt lat="55.597344" lon="12.956041">
        <ele>0.272727</ele>
        <time>1970-01-01T01:00:00Z</time>
      </trkpt>
      <trkpt lat="55.597287" lon="12.955888">
        <ele>0.0909091</ele>
        <time>1970-01-01T01:00:00Z</time>
      </trkpt>
      <trkpt lat="55.597208" lon="12.955756">
        <ele>0</ele>
        <time>1970-01-01T01:00:00Z</time>
      </trkpt>
      <trkpt lat="55.597135" lon="12.955621">
        <ele>0</ele>
        <time>1970-01-01T01:00:00Z</time>
      </trkpt>
      <trkpt lat="55.597061" lon="12.955506">
        <ele>0</ele>
        <time>1970-01-01T01:00:00Z</time>
      </trkpt>
      <trkpt lat="55.596985" lon="12.955392">
        <ele>0</ele>
        <time>1970-01-01T01:00:00Z</time>
      </trkpt>
      <trkpt lat="55.596901" lon="12.955292">
        <ele>0</ele>
        <time>1970-01-01T01:00:00Z</time>
      </trkpt>
      <trkpt lat="55.596819" lon="12.955199">
        <ele>0</ele>
        <time>1970-01-01T01:00:00Z</time>
      </trkpt>
      <trkpt lat="55.596744" lon="12.955101">
        <ele>0</ele>
        <time>1970-01-01T01:00:00Z</time>
      </trkpt>
      <trkpt lat="55.596667" lon="12.954997">
        <ele>0</ele>
        <time>1970-01-01T01:00:00Z</time>
      </trkpt>
      <trkpt lat="55.596602" lon="12.954884">
        <ele>0.181818</ele>
        <time>1970-01-01T01:00:00Z</time>
      </trkpt>
      <trkpt lat="55.596533" lon="12.954788">
        <ele>0.636364</ele>
        <time>1970-01-01T01:00:00Z</time>
      </trkpt>
      <trkpt lat="55.596462" lon="12.954677">
        <ele>1.09091</ele>
        <time>1970-01-01T01:00:00Z</time>
      </trkpt>
      <trkpt lat="55.596391" lon="12.954575">
        <ele>1.54545</ele>
        <time>1970-01-01T01:00:00Z</time>
      </trkpt>
      <trkpt lat="55.596326" lon="12.954471">
        <ele>2</ele>
        <time>1970-01-01T01:00:00Z</time>
      </trkpt>
      <trkpt lat="55.596262" lon="12.954375">
        <ele>2.27273</ele>
        <time>1970-01-01T01:00:00Z</time>
      </trkpt>
      <trkpt lat="55.596196" lon="12.954265">
        <ele>2.54545</ele>
        <time>1970-01-01T01:00:00Z</time>
      </trkpt>
      <trkpt lat="55.596125" lon="12.954126">
        <ele>2.81818</ele>
        <time>1970-01-01T01:00:00Z</time>
      </trkpt>
      <trkpt lat="55.596072" lon="12.953992">
        <ele>3.18182</ele>
        <time>1970-01-01T01:00:00Z</time>
      </trkpt>
      <trkpt lat="55.596019" lon="12.953862">
        <ele>3.54545</ele>
        <time>1970-01-01T01:00:00Z</time>
      </trkpt>
      <trkpt lat="55.595961" lon="12.953734">
        <ele>3.90909</ele>
        <time>1970-01-01T01:00:00Z</time>
      </trkpt>
      <trkpt lat="55.595901" lon="12.953575">
        <ele>3.54545</ele>
        <time>1970-01-01T01:00:00Z</time>
      </trkpt>
      <trkpt lat="55.595842" lon="12.953438">
        <ele>3.18182</ele>
        <time>1970-01-01T01:00:00Z</time>
      </trkpt>
      <trkpt lat="55.595775" lon="12.953259">
        <ele>2.81818</ele>
        <time>1970-01-01T01:00:00Z</time>
      </trkpt>
      <trkpt lat="55.59573" lon="12.95314">
        <ele>2.90909</ele>
        <time>1970-01-01T01:00:00Z</time>
      </trkpt>
      <trkpt lat="55.595663" lon="12.953012">
        <ele>3</ele>
        <time>1970-01-01T01:00:00Z</time>
      </trkpt>
      <trkpt lat="55.595609" lon="12.952863">
        <ele>3.27273</ele>
        <time>1970-01-01T01:00:00Z</time>
      </trkpt>
      <trkpt lat="55.595569" lon="12.95273">
        <ele>3.54545</ele>
        <time>1970-01-01T01:00:00Z</time>
      </trkpt>
      <trkpt lat="55.595526" lon="12.952609">
        <ele>3.63636</ele>
        <time>1970-01-01T01:00:00Z</time>
      </trkpt>
      <trkpt lat="55.59544" lon="12.952528">
        <ele>3.72727</ele>
        <time>1970-01-01T01:00:00Z</time>
      </trkpt>
      <trkpt lat="55.595388" lon="12.952416">
        <ele>3.81818</ele>
        <time>1970-01-01T01:00:00Z</time>
      </trkpt>
      <trkpt lat="55.595346" lon="12.952272">
        <ele>3.90909</ele>
        <time>1970-01-01T01:00:00Z</time>
      </trkpt>
      <trkpt lat="55.595303" lon="12.952126">
        <ele>4.18182</ele>
        <time>1970-01-01T01:00:00Z</time>
      </trkpt>
      <trkpt lat="55.595238" lon="12.951978">
        <ele>4.45455</ele>
        <time>1970-01-01T01:00:00Z</time>
      </trkpt>
      <trkpt lat="55.595184" lon="12.951864">
        <ele>4.45455</ele>
        <time>1970-01-01T01:00:00Z</time>
      </trkpt>
      <trkpt lat="55.59513" lon="12.95174">
        <ele>4</ele>
        <time>1970-01-01T01:00:00Z</time>
      </trkpt>
      <trkpt lat="55.595058" lon="12.951653">
        <ele>3.54545</ele>
        <time>1970-01-01T01:00:00Z</time>
      </trkpt>
      <trkpt lat="55.594978" lon="12.951531">
        <ele>3.09091</ele>
        <time>1970-01-01T01:00:00Z</time>
      </trkpt>
      <trkpt lat="55.594916" lon="12.951398">
        <ele>2.90909</ele>
        <time>1970-01-01T01:00:00Z</time>
      </trkpt>
      <trkpt lat="55.594844" lon="12.951279">
        <ele>2.90909</ele>
        <time>1970-01-01T01:00:00Z</time>
      </trkpt>
      <trkpt lat="55.594779" lon="12.951188">
        <ele>2.90909</ele>
        <time>1970-01-01T01:00:00Z</time>
      </trkpt>
      <trkpt lat="55.594704" lon="12.951074">
        <ele>2.63636</ele>
        <time>1970-01-01T01:00:00Z</time>
      </trkpt>
      <trkpt lat="55.594643" lon="12.950942">
        <ele>2.36364</ele>
        <time>1970-01-01T01:00:00Z</time>
      </trkpt>
      <trkpt lat="55.594576" lon="12.950807">
        <ele>2.09091</ele>
        <time>1970-01-01T01:00:00Z</time>
      </trkpt>
      <trkpt lat="55.594526" lon="12.950663">
        <ele>1.81818</ele>
        <time>1970-01-01T01:00:00Z</time>
      </trkpt>
      <trkpt lat="55.594474" lon="12.950489">
        <ele>1.81818</ele>
        <time>1970-01-01T01:00:00Z</time>
      </trkpt>
      <trkpt lat="55.594428" lon="12.950315">
        <ele>1.81818</ele>
        <time>1970-01-01T01:00:00Z</time>
      </trkpt>
      <trkpt lat="55.594371" lon="12.950166">
        <ele>1.72727</ele>
        <time>1970-01-01T01:00:00Z</time>
      </trkpt>
      <trkpt lat="55.594296" lon="12.950055">
        <ele>1.63636</ele>
        <time>1970-01-01T01:00:00Z</time>
      </trkpt>
      <trkpt lat="55.59422" lon="12.949953">
        <ele>1.27273</ele>
        <time>1970-01-01T01:00:00Z</time>
      </trkpt>
      <trkpt lat="55.594158" lon="12.949804">
        <ele>0.909091</ele>
        <time>1970-01-01T01:00:00Z</time>
      </trkpt>
      <trkpt lat="55.594109" lon="12.949689">
        <ele>0.545455</ele>
        <time>1970-01-01T01:00:00Z</time>
      </trkpt>
      <trkpt lat="55.594059" lon="12.949558">
        <ele>0.454545</ele>
        <time>1970-01-01T01:00:00Z</time>
      </trkpt>
      <trkpt lat="55.594008" lon="12.94941">
        <ele>0.818182</ele>
        <time>1970-01-01T01:00:00Z</time>
      </trkpt>
      <trkpt lat="55.593945" lon="12.949278">
        <ele>1.18182</ele>
        <time>1970-01-01T01:00:00Z</time>
      </trkpt>
      <trkpt lat="55.593889" lon="12.949146">
        <ele>1.54545</ele>
        <time>1970-01-01T01:00:00Z</time>
      </trkpt>
      <trkpt lat="55.593839" lon="12.949003">
        <ele>1.90909</ele>
        <time>1970-01-01T01:00:00Z</time>
      </trkpt>
      <trkpt lat="55.593783" lon="12.948858">
        <ele>2.27273</ele>
        <time>1970-01-01T01:00:00Z</time>
      </trkpt>
      <trkpt lat="55.593724" lon="12.9487">
        <ele>2.27273</ele>
        <time>1970-01-01T01:00:00Z</time>
      </trkpt>
      <trkpt lat="55.593678" lon="12.948551">
        <ele>2.27273</ele>
        <time>1970-01-01T01:00:00Z</time>
      </trkpt>
      <trkpt lat="55.59369" lon="12.948406">
        <ele>2.27273</ele>
        <time>1970-01-01T01:00:00Z</time>
      </trkpt>
      <trkpt lat="55.593709" lon="12.948222">
        <ele>2.27273</ele>
        <time>1970-01-01T01:00:00Z</time>
      </trkpt>
      <trkpt lat="55.593748" lon="12.948028">
        <ele>2.27273</ele>
        <time>1970-01-01T01:00:00Z</time>
      </trkpt>
      <trkpt lat="55.593791" lon="12.947849">
        <ele>2.27273</ele>
        <time>1970-01-01T01:00:00Z</time>
      </trkpt>
      <trkpt lat="55.593833" lon="12.947714">
        <ele>1.81818</ele>
        <time>1970-01-01T01:00:00Z</time>
      </trkpt>
      <trkpt lat="55.593905" lon="12.947571">
        <ele>1.36364</ele>
        <time>1970-01-01T01:00:00Z</time>
      </trkpt>
      <trkpt lat="55.593965" lon="12.947432">
        <ele>0.909091</ele>
        <time>1970-01-01T01:00:00Z</time>
      </trkpt>
      <trkpt lat="55.594032" lon="12.947273">
        <ele>0.454545</ele>
        <time>1970-01-01T01:00:00Z</time>
      </trkpt>
      <trkpt lat="55.594082" lon="12.947146">
        <ele>0</ele>
        <time>1970-01-01T01:00:00Z</time>
      </trkpt>
      <trkpt lat="55.59414" lon="12.947039">
        <ele>0</ele>
        <time>1970-01-01T01:00:00Z</time>
      </trkpt>
      <trkpt lat="55.594197" lon="12.946931">
        <ele>0</ele>
        <time>1970-01-01T01:00:00Z</time>
      </trkpt>
      <trkpt lat="55.594264" lon="12.946821">
        <ele>0</ele>
        <time>1970-01-01T01:00:00Z</time>
      </trkpt>
      <trkpt lat="55.594329" lon="12.946716">
        <ele>0.0909091</ele>
        <time>1970-01-01T01:00:00Z</time>
      </trkpt>
      <trkpt lat="55.594402" lon="12.946587">
        <ele>0.181818</ele>
        <time>1970-01-01T01:00:00Z</time>
      </trkpt>
      <trkpt lat="55.594467" lon="12.946463">
        <ele>0.272727</ele>
        <time>1970-01-01T01:00:00Z</time>
      </trkpt>
      <trkpt lat="55.594513" lon="12.94634">
        <ele>0.363636</ele>
        <time>1970-01-01T01:00:00Z</time>
      </trkpt>
      <trkpt lat="55.59458" lon="12.946232">
        <ele>0.454545</ele>
        <time>1970-01-01T01:00:00Z</time>
      </trkpt>
      <trkpt lat="55.594649" lon="12.946123">
        <ele>0.545455</ele>
        <time>1970-01-01T01:00:00Z</time>
      </trkpt>
      <trkpt lat="55.594713" lon="12.946024">
        <ele>0.636364</ele>
        <time>1970-01-01T01:00:00Z</time>
      </trkpt>
      <trkpt lat="55.594798" lon="12.945906">
        <ele>0.727273</ele>
        <time>1970-01-01T01:00:00Z</time>
      </trkpt>
      <trkpt lat="55.594872" lon="12.945831">
        <ele>0.818182</ele>
        <time>1970-01-01T01:00:00Z</time>
      </trkpt>
      <trkpt lat="55.594934" lon="12.945701">
        <ele>0.909091</ele>
        <time>1970-01-01T01:00:00Z</time>
      </trkpt>
      <trkpt lat="55.595026" lon="12.945616">
        <ele>1</ele>
        <time>1970-01-01T01:00:00Z</time>
      </trkpt>
      <trkpt lat="55.595114" lon="12.945625">
        <ele>1</ele>
        <time>1970-01-01T01:00:00Z</time>
      </trkpt>
      <trkpt lat="55.595175" lon="12.945729">
        <ele>0.909091</ele>
        <time>1970-01-01T01:00:00Z</time>
      </trkpt>
      <trkpt lat="55.595231" lon="12.945836">
        <ele>0.727273</ele>
        <time>1970-01-01T01:00:00Z</time>
      </trkpt>
      <trkpt lat="55.595294" lon="12.945945">
        <ele>0.545455</ele>
        <time>1970-01-01T01:00:00Z</time>
      </trkpt>
      <trkpt lat="55.595343" lon="12.94607">
        <ele>0.363636</ele>
        <time>1970-01-01T01:00:00Z</time>
      </trkpt>
      <trkpt lat="55.5954" lon="12.946211">
        <ele>0.181818</ele>
        <time>1970-01-01T01:00:00Z</time>
      </trkpt>
      <trkpt lat="55.595462" lon="12.94637">
        <ele>0</ele>
        <time>1970-01-01T01:00:00Z</time>
      </trkpt>
      <trkpt lat="55.595514" lon="12.946531">
        <ele>0</ele>
        <time>1970-01-01T01:00:00Z</time>
      </trkpt>
      <trkpt lat="55.595573" lon="12.946676">
        <ele>0</ele>
        <time>1970-01-01T01:00:00Z</time>
      </trkpt>
      <trkpt lat="55.595643" lon="12.946814">
        <ele>0</ele>
        <time>1970-01-01T01:00:00Z</time>
      </trkpt>
      <trkpt lat="55.595699" lon="12.946949">
        <ele>0</ele>
        <time>1970-01-01T01:00:00Z</time>
      </trkpt>
      <trkpt lat="55.595753" lon="12.947087">
        <ele>0</ele>
        <time>1970-01-01T01:00:00Z</time>
      </trkpt>
      <trkpt lat="55.595793" lon="12.947233">
        <ele>0</ele>
        <time>1970-01-01T01:00:00Z</time>
      </trkpt>
      <trkpt lat="55.59585" lon="12.947381">
        <ele>0</ele>
        <time>1970-01-01T01:00:00Z</time>
      </trkpt>
      <trkpt lat="55.595901" lon="12.947525">
        <ele>0</ele>
        <time>1970-01-01T01:00:00Z</time>
      </trkpt>
      <trkpt lat="55.59595" lon="12.947655">
        <ele>0</ele>
        <time>1970-01-01T01:00:00Z</time>
      </trkpt>
      <trkpt lat="55.596" lon="12.94779">
        <ele>0</ele>
        <time>1970-01-01T01:00:00Z</time>
      </trkpt>
      <trkpt lat="55.596064" lon="12.947927">
        <ele>0</ele>
        <time>1970-01-01T01:00:00Z</time>
      </trkpt>
      <trkpt lat="55.596101" lon="12.948105">
        <ele>0</ele>
        <time>1970-01-01T01:00:00Z</time>
      </trkpt>
      <trkpt lat="55.596154" lon="12.948263">
        <ele>0</ele>
        <time>1970-01-01T01:00:00Z</time>
      </trkpt>
      <trkpt lat="55.596221" lon="12.948424">
        <ele>0</ele>
        <time>1970-01-01T01:00:00Z</time>
      </trkpt>
      <trkpt lat="55.596263" lon="12.94857">
        <ele>0</ele>
        <time>1970-01-01T01:00:00Z</time>
      </trkpt>
      <trkpt lat="55.596318" lon="12.9487">
        <ele>0</ele>
        <time>1970-01-01T01:00:00Z</time>
      </trkpt>
      <trkpt lat="55.596377" lon="12.948847">
        <ele>0</ele>
        <time>1970-01-01T01:00:00Z</time>
      </trkpt>
      <trkpt lat="55.59643" lon="12.948992">
        <ele>0</ele>
        <time>1970-01-01T01:00:00Z</time>
      </trkpt>
      <trkpt lat="55.596492" lon="12.94915">
        <ele>0</ele>
        <time>1970-01-01T01:00:00Z</time>
      </trkpt>
      <trkpt lat="55.596543" lon="12.949285">
        <ele>0</ele>
        <time>1970-01-01T01:00:00Z</time>
      </trkpt>
      <trkpt lat="55.5966" lon="12.949415">
        <ele>0.272727</ele>
        <time>1970-01-01T01:00:00Z</time>
      </trkpt>
      <trkpt lat="55.596648" lon="12.949559">
        <ele>0.454545</ele>
        <time>1970-01-01T01:00:00Z</time>
      </trkpt>
      <trkpt lat="55.596695" lon="12.949692">
        <ele>0.545455</ele>
        <time>1970-01-01T01:00:00Z</time>
      </trkpt>
      <trkpt lat="55.596748" lon="12.949824">
        <ele>0.545455</ele>
        <time>1970-01-01T01:00:00Z</time>
      </trkpt>
      <trkpt lat="55.5968" lon="12.949966">
        <ele>0.545455</ele>
        <time>1970-01-01T01:00:00Z</time>
      </trkpt>
      <trkpt lat="55.596837" lon="12.950118">
        <ele>0.545455</ele>
        <time>1970-01-01T01:00:00Z</time>
      </trkpt>
      <trkpt lat="55.596882" lon="12.950244">
        <ele>0.545455</ele>
        <time>1970-01-01T01:00:00Z</time>
      </trkpt>
      <trkpt lat="55.596936" lon="12.950395">
        <ele>0.636364</ele>
        <time>1970-01-01T01:00:00Z</time>
      </trkpt>
      <trkpt lat="55.59698" lon="12.950537">
        <ele>0.636364</ele>
        <time>1970-01-01T01:00:00Z</time>
      </trkpt>
      <trkpt lat="55.597029" lon="12.950656">
        <ele>0.545455</ele>
        <time>1970-01-01T01:00:00Z</time>
      </trkpt>
      <trkpt lat="55.597064" lon="12.950796">
        <ele>0.454545</ele>
        <time>1970-01-01T01:00:00Z</time>
      </trkpt>
      <trkpt lat="55.597104" lon="12.950926">
        <ele>0.363636</ele>
        <time>1970-01-01T01:00:00Z</time>
      </trkpt>
      <trkpt lat="55.597135" lon="12.951078">
        <ele>0.272727</ele>
        <time>1970-01-01T01:00:00Z</time>
      </trkpt>
      <trkpt lat="55.597213" lon="12.95124">
        <ele>0.181818</ele>
        <time>1970-01-01T01:00:00Z</time>
      </trkpt>
      <trkpt lat="55.597272" lon="12.95134">
        <ele>0.181818</ele>
        <time>1970-01-01T01:00:00Z</time>
      </trkpt>
      <trkpt lat="55.597326" lon="12.951516">
        <ele>0.181818</ele>
        <time>1970-01-01T01:00:00Z</time>
      </trkpt>
      <trkpt lat="55.597376" lon="12.951641">
        <ele>0.181818</ele>
        <time>1970-01-01T01:00:00Z</time>
      </trkpt>
      <trkpt lat="55.597435" lon="12.951745">
        <ele>0.181818</ele>
        <time>1970-01-01T01:00:00Z</time>
      </trkpt>
      <trkpt lat="55.597489" lon="12.951873">
        <ele>0.0909091</ele>
        <time>1970-01-01T01:00:00Z</time>
      </trkpt>
      <trkpt lat="55.59753" lon="12.952018">
        <ele>0</ele>
        <time>1970-01-01T01:00:00Z</time>
      </trkpt>
      <trkpt lat="55.597571" lon="12.952157">
        <ele>0</ele>
        <time>1970-01-01T01:00:00Z</time>
      </trkpt>
      <trkpt lat="55.597614" lon="12.952279">
        <ele>0</ele>
        <time>1970-01-01T01:00:00Z</time>
      </trkpt>
      <trkpt lat="55.597674" lon="12.952418">
        <ele>0</ele>
        <time>1970-01-01T01:00:00Z</time>
      </trkpt>
      <trkpt lat="55.597724" lon="12.952561">
        <ele>0</ele>
        <time>1970-01-01T01:00:00Z</time>
      </trkpt>
      <trkpt lat="55.597791" lon="12.9527">
        <ele>0</ele>
        <time>1970-01-01T01:00:00Z</time>
      </trkpt>
      <trkpt lat="55.597836" lon="12.952821">
        <ele>0</ele>
        <time>1970-01-01T01:00:00Z</time>
      </trkpt>
      <trkpt lat="55.597882" lon="12.95299">
        <ele>0</ele>
        <time>1970-01-01T01:00:00Z</time>
      </trkpt>
      <trkpt lat="55.597938" lon="12.95314">
        <ele>0</ele>
        <time>1970-01-01T01:00:00Z</time>
      </trkpt>
      <trkpt lat="55.597991" lon="12.953292">
        <ele>0</ele>
        <time>1970-01-01T01:00:00Z</time>
      </trkpt>
      <trkpt lat="55.598042" lon="12.953441">
        <ele>0</ele>
        <time>1970-01-01T01:00:00Z</time>
      </trkpt>
      <trkpt lat="55.598103" lon="12.953588">
        <ele>0</ele>
        <time>1970-01-01T01:00:00Z</time>
      </trkpt>
      <trkpt lat="55.598157" lon="12.95371">
        <ele>0</ele>
        <time>1970-01-01T01:00:00Z</time>
      </trkpt>
      <trkpt lat="55.598197" lon="12.953837">
        <ele>0</ele>
        <time>1970-01-01T01:00:00Z</time>
      </trkpt>
      <trkpt lat="55.598257" lon="12.954005">
        <ele>0</ele>
        <time>1970-01-01T01:00:00Z</time>
      </trkpt>
      <trkpt lat="55.598319" lon="12.954149">
        <ele>0</ele>
        <time>1970-01-01T01:00:00Z</time>
      </trkpt>
      <trkpt lat="55.598367" lon="12.954297">
        <ele>0</ele>
        <time>1970-01-01T01:00:00Z</time>
      </trkpt>
      <trkpt lat="55.598428" lon="12.954425">
        <ele>0</ele>
        <time>1970-01-01T01:00:00Z</time>
      </trkpt>
      <trkpt lat="55.598471" lon="12.954582">
        <ele>0</ele>
        <time>1970-01-01T01:00:00Z</time>
      </trkpt>
      <trkpt lat="55.598508" lon="12.954718">
        <ele>0</ele>
        <time>1970-01-01T01:00:00Z</time>
      </trkpt>
      <trkpt lat="55.598568" lon="12.954842">
        <ele>0</ele>
        <time>1970-01-01T01:00:00Z</time>
      </trkpt>
      <trkpt lat="55.598616" lon="12.954966">
        <ele>0</ele>
        <time>1970-01-01T01:00:00Z</time>
      </trkpt>
      <trkpt lat="55.598663" lon="12.955088">
        <ele>0</ele>
        <time>1970-01-01T01:00:00Z</time>
      </trkpt>
      <trkpt lat="55.598715" lon="12.955217">
        <ele>0</ele>
        <time>1970-01-01T01:00:00Z</time>
      </trkpt>
      <trkpt lat="55.598767" lon="12.955347">
        <ele>0</ele>
        <time>1970-01-01T01:00:00Z</time>
      </trkpt>
      <trkpt lat="55.598817" lon="12.955492">
        <ele>0</ele>
        <time>1970-01-01T01:00:00Z</time>
      </trkpt>
      <trkpt lat="55.59886" lon="12.955639">
        <ele>0.0909091</ele>
        <time>1970-01-01T01:00:00Z</time>
      </trkpt>
      <trkpt lat="55.598906" lon="12.955801">
        <ele>0.181818</ele>
        <time>1970-01-01T01:00:00Z</time>
      </trkpt>
      <trkpt lat="55.598956" lon="12.95595">
        <ele>0.272727</ele>
        <time>1970-01-01T01:00:00Z</time>
      </trkpt>
      <trkpt lat="55.598995" lon="12.956098">
        <ele>0.363636</ele>
        <time>1970-01-01T01:00:00Z</time>
      </trkpt>
      <trkpt lat="55.599039" lon="12.956246">
        <ele>0.454545</ele>
        <time>1970-01-01T01:00:00Z</time>
      </trkpt>
      <trkpt lat="55.59905" lon="12.956442">
        <ele>0.454545</ele>
        <time>1970-01-01T01:00:00Z</time>
      </trkpt>
      <trkpt lat="55.599084" lon="12.956601">
        <ele>0.454545</ele>
        <time>1970-01-01T01:00:00Z</time>
      </trkpt>
      <trkpt lat="55.599138" lon="12.95677">
        <ele>0.454545</ele>
        <time>1970-01-01T01:00:00Z</time>
      </trkpt>
      <trkpt lat="55.599192" lon="12.956909">
        <ele>0.454545</ele>
        <time>1970-01-01T01:00:00Z</time>
      </trkpt>
      <trkpt lat="55.599248" lon="12.957063">
        <ele>0.454545</ele>
        <time>1970-01-01T01:00:00Z</time>
      </trkpt>
      <trkpt lat="55.599304" lon="12.957204">
        <ele>0.454545</ele>
        <time>1970-01-01T01:00:00Z</time>
      </trkpt>
      <trkpt lat="55.599346" lon="12.957345">
        <ele>0.272727</ele>
        <time>1970-01-01T01:00:00Z</time>
      </trkpt>
      <trkpt lat="55.599385" lon="12.957482">
        <ele>0.0909091</ele>
        <time>1970-01-01T01:00:00Z</time>
      </trkpt>
      <trkpt lat="55.599427" lon="12.957624">
        <ele>0</ele>
        <time>1970-01-01T01:00:00Z</time>
      </trkpt>
      <trkpt lat="55.599482" lon="12.957758">
        <ele>0</ele>
        <time>1970-01-01T01:00:00Z</time>
      </trkpt>
      <trkpt lat="55.599521" lon="12.957929">
        <ele>0</ele>
        <time>1970-01-01T01:00:00Z</time>
      </trkpt>
      <trkpt lat="55.599568" lon="12.958115">
        <ele>0</ele>
        <time>1970-01-01T01:00:00Z</time>
      </trkpt>
      <trkpt lat="55.599614" lon="12.958283">
        <ele>0</ele>
        <time>1970-01-01T01:00:00Z</time>
      </trkpt>
      <trkpt lat="55.599646" lon="12.958449">
        <ele>0</ele>
        <time>1970-01-01T01:00:00Z</time>
      </trkpt>
      <trkpt lat="55.599684" lon="12.958598">
        <ele>0</ele>
        <time>1970-01-01T01:00:00Z</time>
      </trkpt>
      <trkpt lat="55.599727" lon="12.958737">
        <ele>0</ele>
        <time>1970-01-01T01:00:00Z</time>
      </trkpt>
      <trkpt lat="55.599772" lon="12.958861">
        <ele>0</ele>
        <time>1970-01-01T01:00:00Z</time>
      </trkpt>
      <trkpt lat="55.599814" lon="12.958998">
        <ele>0</ele>
        <time>1970-01-01T01:00:00Z</time>
      </trkpt>
      <trkpt lat="55.599859" lon="12.959118">
        <ele>0</ele>
        <time>1970-01-01T01:00:00Z</time>
      </trkpt>
      <trkpt lat="55.599892" lon="12.959269">
        <ele>0</ele>
        <time>1970-01-01T01:00:00Z</time>
      </trkpt>
      <trkpt lat="55.599921" lon="12.959424">
        <ele>0</ele>
        <time>1970-01-01T01:00:00Z</time>
      </trkpt>
      <trkpt lat="55.599968" lon="12.959601">
        <ele>0</ele>
        <time>1970-01-01T01:00:00Z</time>
      </trkpt>
      <trkpt lat="55.600016" lon="12.959769">
        <ele>0</ele>
        <time>1970-01-01T01:00:00Z</time>
      </trkpt>
      <trkpt lat="55.600065" lon="12.959925">
        <ele>0</ele>
        <time>1970-01-01T01:00:00Z</time>
      </trkpt>
      <trkpt lat="55.600132" lon="12.960096">
        <ele>0</ele>
        <time>1970-01-01T01:00:00Z</time>
      </trkpt>
      <trkpt lat="55.600179" lon="12.960233">
        <ele>0</ele>
        <time>1970-01-01T01:00:00Z</time>
      </trkpt>
      <trkpt lat="55.600225" lon="12.960371">
        <ele>0</ele>
        <time>1970-01-01T01:00:00Z</time>
      </trkpt>
      <trkpt lat="55.600256" lon="12.96051">
        <ele>0</ele>
        <time>1970-01-01T01:00:00Z</time>
      </trkpt>
      <trkpt lat="55.600301" lon="12.960659">
        <ele>0</ele>
        <time>1970-01-01T01:00:00Z</time>
      </trkpt>
      <trkpt lat="55.600349" lon="12.960813">
        <ele>0</ele>
        <time>1970-01-01T01:00:00Z</time>
      </trkpt>
      <trkpt lat="55.600406" lon="12.960953">
        <ele>0</ele>
        <time>1970-01-01T01:00:00Z</time>
      </trkpt>
      <trkpt lat="55.600443" lon="12.961114">
        <ele>0</ele>
        <time>1970-01-01T01:00:00Z</time>
      </trkpt>
      <trkpt lat="55.600461" lon="12.961273">
        <ele>0</ele>
        <time>1970-01-01T01:00:00Z</time>
      </trkpt>
      <trkpt lat="55.600489" lon="12.961448">
        <ele>0</ele>
        <time>1970-01-01T01:00:00Z</time>
      </trkpt>
      <trkpt lat="55.600535" lon="12.961623">
        <ele>0</ele>
        <time>1970-01-01T01:00:00Z</time>
      </trkpt>
      <trkpt lat="55.600584" lon="12.961781">
        <ele>0</ele>
        <time>1970-01-01T01:00:00Z</time>
      </trkpt>
      <trkpt lat="55.600628" lon="12.961929">
        <ele>0</ele>
        <time>1970-01-01T01:00:00Z</time>
      </trkpt>
      <trkpt lat="55.600676" lon="12.962073">
        <ele>0</ele>
        <time>1970-01-01T01:00:00Z</time>
      </trkpt>
      <trkpt lat="55.60072" lon="12.962244">
        <ele>0</ele>
        <time>1970-01-01T01:00:00Z</time>
      </trkpt>
      <trkpt lat="55.600755" lon="12.96239">
        <ele>0</ele>
        <time>1970-01-01T01:00:00Z</time>
      </trkpt>
      <trkpt lat="55.600795" lon="12.962555">
        <ele>0.272727</ele>
        <time>1970-01-01T01:00:00Z</time>
      </trkpt>
      <trkpt lat="55.600842" lon="12.962716">
        <ele>0.545455</ele>
        <time>1970-01-01T01:00:00Z</time>
      </trkpt>
      <trkpt lat="55.600894" lon="12.962837">
        <ele>0.818182</ele>
        <time>1970-01-01T01:00:00Z</time>
      </trkpt>
      <trkpt lat="55.600937" lon="12.963001">
        <ele>1.09091</ele>
        <time>1970-01-01T01:00:00Z</time>
      </trkpt>
      <trkpt lat="55.60098" lon="12.96314">
        <ele>1.27273</ele>
        <time>1970-01-01T01:00:00Z</time>
      </trkpt>
      <trkpt lat="55.601032" lon="12.963326">
        <ele>1.27273</ele>
        <time>1970-01-01T01:00:00Z</time>
      </trkpt>
      <trkpt lat="55.601085" lon="12.963512">
        <ele>1.27273</ele>
        <time>1970-01-01T01:00:00Z</time>
      </trkpt>
      <trkpt lat="55.601144" lon="12.96368">
        <ele>1.27273</ele>
        <time>1970-01-01T01:00:00Z</time>
      </trkpt>
      <trkpt lat="55.601193" lon="12.963834">
        <ele>1.27273</ele>
        <time>1970-01-01T01:00:00Z</time>
      </trkpt>
      <trkpt lat="55.601248" lon="12.963973">
        <ele>1.09091</ele>
        <time>1970-01-01T01:00:00Z</time>
      </trkpt>
      <trkpt lat="55.601298" lon="12.964113">
        <ele>0.909091</ele>
        <time>1970-01-01T01:00:00Z</time>
      </trkpt>
      <trkpt lat="55.601341" lon="12.964261">
        <ele>0.727273</ele>
        <time>1970-01-01T01:00:00Z</time>
      </trkpt>
      <trkpt lat="55.601368" lon="12.964402">
        <ele>0.545455</ele>
        <time>1970-01-01T01:00:00Z</time>
      </trkpt>
      <trkpt lat="55.601392" lon="12.96457">
        <ele>0.363636</ele>
        <time>1970-01-01T01:00:00Z</time>
      </trkpt>
      <trkpt lat="55.601455" lon="12.964748">
        <ele>0.181818</ele>
        <time>1970-01-01T01:00:00Z</time>
      </trkpt>
      <trkpt lat="55.601508" lon="12.96491">
        <ele>0</ele>
        <time>1970-01-01T01:00:00Z</time>
      </trkpt>
      <trkpt lat="55.601553" lon="12.965098">
        <ele>0</ele>
        <time>1970-01-01T01:00:00Z</time>
      </trkpt>
      <trkpt lat="55.601602" lon="12.965246">
        <ele>0</ele>
        <time>1970-01-01T01:00:00Z</time>
      </trkpt>
      <trkpt lat="55.601655" lon="12.965389">
        <ele>0</ele>
        <time>1970-01-01T01:00:00Z</time>
      </trkpt>
      <trkpt lat="55.6017" lon="12.965543">
        <ele>0</ele>
        <time>1970-01-01T01:00:00Z</time>
      </trkpt>
      <trkpt lat="55.601747" lon="12.965696">
        <ele>0</ele>
        <time>1970-01-01T01:00:00Z</time>
      </trkpt>
      <trkpt lat="55.60179" lon="12.965846">
        <ele>0</ele>
        <time>1970-01-01T01:00:00Z</time>
      </trkpt>
      <trkpt lat="55.601825" lon="12.965993">
        <ele>0</ele>
        <time>1970-01-01T01:00:00Z</time>
      </trkpt>
      <trkpt lat="55.601868" lon="12.966134">
        <ele>0</ele>
        <time>1970-01-01T01:00:00Z</time>
      </trkpt>
      <trkpt lat="55.601912" lon="12.966289">
        <ele>0</ele>
        <time>1970-01-01T01:00:00Z</time>
      </trkpt>
      <trkpt lat="55.601953" lon="12.966467">
        <ele>0</ele>
        <time>1970-01-01T01:00:00Z</time>
      </trkpt>
      <trkpt lat="55.601979" lon="12.966638">
        <ele>0</ele>
        <time>1970-01-01T01:00:00Z</time>
      </trkpt>
      <trkpt lat="55.60203" lon="12.966795">
        <ele>0</ele>
        <time>1970-01-01T01:00:00Z</time>
      </trkpt>
      <trkpt lat="55.60208" lon="12.966944">
        <ele>0</ele>
        <time>1970-01-01T01:00:00Z</time>
      </trkpt>
      <trkpt lat="55.602127" lon="12.967105">
        <ele>0</ele>
        <time>1970-01-01T01:00:00Z</time>
      </trkpt>
      <trkpt lat="55.602174" lon="12.967266">
        <ele>0</ele>
        <time>1970-01-01T01:00:00Z</time>
      </trkpt>
      <trkpt lat="55.602225" lon="12.967428">
        <ele>0</ele>
        <time>1970-01-01T01:00:00Z</time>
      </trkpt>
      <trkpt lat="55.60227" lon="12.967597">
        <ele>0</ele>
        <time>1970-01-01T01:00:00Z</time>
      </trkpt>
      <trkpt lat="55.602314" lon="12.967727">
        <ele>0</ele>
        <time>1970-01-01T01:00:00Z</time>
      </trkpt>
      <trkpt lat="55.602357" lon="12.967852">
        <ele>0</ele>
        <time>1970-01-01T01:00:00Z</time>
      </trkpt>
      <trkpt lat="55.602406" lon="12.967989">
        <ele>0</ele>
        <time>1970-01-01T01:00:00Z</time>
      </trkpt>
      <trkpt lat="55.602438" lon="12.968136">
        <ele>0.181818</ele>
        <time>1970-01-01T01:00:00Z</time>
      </trkpt>
      <trkpt lat="55.60248" lon="12.968303">
        <ele>0.454545</ele>
        <time>1970-01-01T01:00:00Z</time>
      </trkpt>
      <trkpt lat="55.602512" lon="12.968439">
        <ele>0.727273</ele>
        <time>1970-01-01T01:00:00Z</time>
      </trkpt>
      <trkpt lat="55.602553" lon="12.968573">
        <ele>1</ele>
        <time>1970-01-01T01:00:00Z</time>
      </trkpt>
      <trkpt lat="55.602594" lon="12.968703">
        <ele>1.27273</ele>
        <time>1970-01-01T01:00:00Z</time>
      </trkpt>
      <trkpt lat="55.602637" lon="12.968833">
        <ele>1.54545</ele>
        <time>1970-01-01T01:00:00Z</time>
      </trkpt>
      <trkpt lat="55.602671" lon="12.968983">
        <ele>1.72727</ele>
        <time>1970-01-01T01:00:00Z</time>
      </trkpt>
      <trkpt lat="55.602721" lon="12.969142">
        <ele>1.45455</ele>
        <time>1970-01-01T01:00:00Z</time>
      </trkpt>
      <trkpt lat="55.602759" lon="12.969294">
        <ele>1.18182</ele>
        <time>1970-01-01T01:00:00Z</time>
      </trkpt>
      <trkpt lat="55.602807" lon="12.969422">
        <ele>0.909091</ele>
        <time>1970-01-01T01:00:00Z</time>
      </trkpt>
      <trkpt lat="55.60286" lon="12.96961">
        <ele>0.636364</ele>
        <time>1970-01-01T01:00:00Z</time>
      </trkpt>
      <trkpt lat="55.602915" lon="12.969798">
        <ele>0.363636</ele>
        <time>1970-01-01T01:00:00Z</time>
      </trkpt>
      <trkpt lat="55.602955" lon="12.969978">
        <ele>0.0909091</ele>
        <time>1970-01-01T01:00:00Z</time>
      </trkpt>
      <trkpt lat="55.602983" lon="12.97012">
        <ele>0</ele>
        <time>1970-01-01T01:00:00Z</time>
      </trkpt>
      <trkpt lat="55.603023" lon="12.970287">
        <ele>0</ele>
        <time>1970-01-01T01:00:00Z</time>
      </trkpt>
      <trkpt lat="55.603063" lon="12.970442">
        <ele>0</ele>
        <time>1970-01-01T01:00:00Z</time>
      </trkpt>
      <trkpt lat="55.60311" lon="12.970578">
        <ele>0</ele>
        <time>1970-01-01T01:00:00Z</time>
      </trkpt>
      <trkpt lat="55.603142" lon="12.970728">
        <ele>0</ele>
        <time>1970-01-01T01:00:00Z</time>
      </trkpt>
      <trkpt lat="55.603204" lon="12.970905">
        <ele>0</ele>
        <time>1970-01-01T01:00:00Z</time>
      </trkpt>
      <trkpt lat="55.603253" lon="12.971073">
        <ele>0</ele>
        <time>1970-01-01T01:00:00Z</time>
      </trkpt>
      <trkpt lat="55.60329" lon="12.971215">
        <ele>0</ele>
        <time>1970-01-01T01:00:00Z</time>
      </trkpt>
      <trkpt lat="55.603335" lon="12.971369">
        <ele>0.181818</ele>
        <time>1970-01-01T01:00:00Z</time>
      </trkpt>
      <trkpt lat="55.603373" lon="12.971531">
        <ele>0.454545</ele>
        <time>1970-01-01T01:00:00Z</time>
      </trkpt>
      <trkpt lat="55.60342" lon="12.971679">
        <ele>0.727273</ele>
        <time>1970-01-01T01:00:00Z</time>
      </trkpt>
      <trkpt lat="55.603468" lon="12.971835">
        <ele>1</ele>
        <time>1970-01-01T01:00:00Z</time>
      </trkpt>
      <trkpt lat="55.603516" lon="12.971992">
        <ele>1.27273</ele>
        <time>1970-01-01T01:00:00Z</time>
      </trkpt>
      <trkpt lat="55.603558" lon="12.972144">
        <ele>1.54545</ele>
        <time>1970-01-01T01:00:00Z</time>
      </trkpt>
      <trkpt lat="55.603602" lon="12.9723">
        <ele>1.54545</ele>
        <time>1970-01-01T01:00:00Z</time>
      </trkpt>
      <trkpt lat="55.603642" lon="12.972442">
        <ele>1.54545</ele>
        <time>1970-01-01T01:00:00Z</time>
      </trkpt>
      <trkpt lat="55.603685" lon="12.97257">
        <ele>1.54545</ele>
        <time>1970-01-01T01:00:00Z</time>
      </trkpt>
      <trkpt lat="55.603713" lon="12.972725">
        <ele>1.54545</ele>
        <time>1970-01-01T01:00:00Z</time>
      </trkpt>
      <trkpt lat="55.603762" lon="12.972872">
        <ele>1.54545</ele>
        <time>1970-01-01T01:00:00Z</time>
      </trkpt>
      <trkpt lat="55.603793" lon="12.973016">
        <ele>1.45455</ele>
        <time>1970-01-01T01:00:00Z</time>
      </trkpt>
      <trkpt lat="55.60385" lon="12.973149">
        <ele>1.36364</ele>
        <time>1970-01-01T01:00:00Z</time>
      </trkpt>
      <trkpt lat="55.603896" lon="12.973325">
        <ele>1.27273</ele>
        <time>1970-01-01T01:00:00Z</time>
      </trkpt>
      <trkpt lat="55.60394" lon="12.973493">
        <ele>1.18182</ele>
        <time>1970-01-01T01:00:00Z</time>
      </trkpt>
      <trkpt lat="55.603982" lon="12.97367">
        <ele>1.09091</ele>
        <time>1970-01-01T01:00:00Z</time>
      </trkpt>
      <trkpt lat="55.604024" lon="12.973833">
        <ele>1</ele>
        <time>1970-01-01T01:00:00Z</time>
      </trkpt>
      <trkpt lat="55.604074" lon="12.974004">
        <ele>1.09091</ele>
        <time>1970-01-01T01:00:00Z</time>
      </trkpt>
      <trkpt lat="55.60413" lon="12.97414">
        <ele>1.18182</ele>
        <time>1970-01-01T01:00:00Z</time>
      </trkpt>
      <trkpt lat="55.604187" lon="12.97427">
        <ele>1.27273</ele>
        <time>1970-01-01T01:00:00Z</time>
      </trkpt>
      <trkpt lat="55.604234" lon="12.974448">
        <ele>1.36364</ele>
        <time>1970-01-01T01:00:00Z</time>
      </trkpt>
      <trkpt lat="55.604278" lon="12.974627">
        <ele>1.4</ele>
        <time>1970-01-01T01:00:00Z</time>
      </trkpt>
      <trkpt lat="55.60431" lon="12.974766">
        <ele>1.44444</ele>
        <time>1970-01-01T01:00:00Z</time>
      </trkpt>
      <trkpt lat="55.604331" lon="12.974926">
        <ele>1.5</ele>
        <time>1970-01-01T01:00:00Z</time>
      </trkpt>
      <trkpt lat="55.604382" lon="12.975112">
        <ele>1.57143</ele>
        <time>1970-01-01T01:00:00Z</time>
      </trkpt>
      <trkpt lat="55.604437" lon="12.975293">
        <ele>1.66667</ele>
        <time>1970-01-01T01:00:00Z</time>
      </trkpt>
    </trkseg>
  </trk>
</gpx>